Theta_e
349 350 350 349 349 349 349 348 345 347 347 344 346 345 345 347 347 346 346 347 346 345 346 345 346 346 345 345 345 344 345 346 346 347 347 347 349 348 350 351 352 351 348 347 346 346 347 348 347 346 345 344 345 345 342 342 342 342 342 342 342 341 342 344 346 346 345 344 341 341 346 348 346 345 345 346 347 346 346 346 344 344 343 342 343
346 347 348 349 348 348 347 345 344 345 345 342 344 345 344 346 347 346 347 347 346 346 346 346 346 346 344 344 345 344 344 345 345 346 347 347 348 348 349 349 351 351 349 348 347 347 347 347 346 347 347 346 346 345 343 343 342 340 340 341 341 341 341 342 346 347 347 347 344 343 346 347 346 345 345 346 346 346 346 346 345 345 345 343 343
345 346 348 349 348 348 347 345 344 344 343 343 346 347 345 346 348 348 349 349 346 347 348 347 346 345 344 345 345 345 344 345 345 346 347 347 346 347 347 349 351 351 350 350 349 348 349 346 344 346 347 347 348 347 346 344 344 344 342 341 341 342 342 343 346 347 348 347 346 345 346 347 347 345 344 345 345 345 344 345 346 347 345 345 344
350 349 348 348 348 348 346 345 344 344 345 344 347 349 347 346 347 349 350 350 349 349 349 348 347 346 346 346 346 345 345 345 347 347 348 348 349 348 347 348 350 351 351 351 350 350 350 348 346 346 347 349 349 348 348 346 346 346 345 343 342 342 343 344 346 347 348 348 346 344 344 346 347 346 345 345 345 344 344 344 344 345 346 346 346
353 352 351 349 348 347 344 344 343 345 347 345 347 349 346 347 348 349 351 350 350 349 350 350 348 347 347 346 345 346 346 346 346 347 347 349 352 352 349 349 348 349 348 349 350 351 352 351 349 347 347 349 350 349 348 348 347 348 347 346 346 345 345 347 348 348 348 347 346 344 343 345 347 346 346 346 346 346 345 345 344 344 345 347 347
354 352 352 349 347 346 345 345 342 343 348 348 348 348 346 349 349 350 352 350 352 352 350 350 348 346 346 346 345 345 346 346 346 346 347 350 352 351 349 350 349 347 346 346 348 352 353 352 351 350 349 349 351 350 349 348 347 347 346 346 349 349 348 348 347 347 347 347 347 346 345 346 346 347 347 347 347 347 347 346 345 344 344 345 346
356 353 351 350 349 348 346 346 344 344 348 348 347 347 346 349 349 350 352 352 353 353 351 349 348 347 346 345 345 345 346 346 346 347 350 352 352 350 350 350 349 348 347 347 347 350 352 351 350 351 352 350 350 350 349 347 346 347 346 346 348 349 348 347 346 347 347 347 347 347 347 346 346 346 348 348 347 347 347 347 347 346 344 344 345
355 354 352 352 349 348 347 346 347 348 349 348 347 348 348 349 350 352 354 354 354 353 351 349 347 346 345 345 345 345 346 345 346 347 351 355 354 351 351 350 350 349 348 348 347 348 349 349 349 348 349 350 349 349 349 349 347 348 349 348 348 347 347 346 346 346 347 348 347 347 348 346 346 346 347 348 348 347 347 347 347 346 345 345 345
355 354 353 353 350 347 348 346 348 351 349 348 348 348 348 349 351 353 355 356 355 353 351 349 348 345 346 347 347 347 346 346 346 346 349 355 354 352 353 352 352 351 349 347 348 348 348 348 348 348 349 347 347 348 349 349 349 349 349 350 350 348 347 346 346 346 347 348 347 347 348 347 347 348 347 348 348 347 347 347 347 347 346 346 346
355 353 351 353 351 348 349 348 350 351 349 348 348 348 350 350 351 352 354 357 357 355 352 351 348 347 348 351 349 347 347 346 346 345 348 355 354 352 355 354 352 352 351 349 350 349 348 348 348 348 348 347 346 347 346 346 347 348 349 350 351 349 348 346 346 348 347 348 348 348 348 347 348 348 348 347 347 348 347 347 347 347 347 347 346
356 355 353 352 353 350 350 352 352 351 349 349 348 349 350 350 352 354 355 356 355 354 353 351 349 349 352 353 350 346 346 346 347 349 351 356 355 352 354 353 352 353 352 350 350 351 347 347 348 347 347 347 348 348 347 347 346 346 347 349 350 350 348 348 347 348 348 347 349 349 349 348 348 349 349 347 347 348 347 347 347 346 347 346 345
355 357 355 353 352 351 351 352 354 353 351 351 349 350 351 353 355 355 355 355 354 353 353 351 349 350 350 351 348 345 345 346 350 354 354 356 355 351 352 352 351 352 353 352 352 352 348 347 348 348 349 350 350 349 349 349 348 346 346 348 350 350 349 350 349 348 347 348 348 349 349 348 349 349 349 348 347 348 347 347 347 347 346 345 344
356 356 356 354 353 351 352 353 354 352 352 352 351 350 353 357 356 354 355 356 356 355 353 352 351 352 353 350 348 346 347 350 353 354 354 356 354 351 350 350 350 351 354 354 352 352 350 349 350 350 351 351 350 351 350 348 348 347 345 348 351 350 350 351 350 348 345 346 348 349 348 348 348 349 348 347 347 347 347 347 347 346 346 344 343
356 355 355 355 353 353 352 355 355 353 352 353 354 354 356 358 355 353 355 356 356 354 351 352 352 354 356 356 356 352 351 351 352 353 354 355 354 354 353 353 352 350 354 355 352 351 349 349 351 351 351 350 352 355 352 347 346 347 346 347 348 350 350 350 349 348 345 345 347 348 347 347 347 347 347 347 347 347 346 347 346 345 345 343 342
356 356 355 355 354 352 352 353 355 354 353 355 356 356 356 356 354 354 355 355 354 351 350 351 352 354 357 360 361 358 356 354 351 352 354 354 354 355 354 355 355 352 355 356 353 352 351 351 351 353 352 351 354 355 352 347 346 345 346 346 346 348 349 348 347 348 346 346 347 347 347 346 346 346 346 345 346 346 346 346 346 345 344 344 341
356 355 354 354 353 352 351 351 354 355 355 356 356 355 355 355 355 354 355 355 353 351 351 350 352 356 360 362 359 356 359 357 352 351 352 354 356 354 352 354 356 353 353 355 354 353 353 352 352 353 352 351 355 355 349 349 348 346 347 347 347 348 349 348 348 348 348 347 347 345 346 345 345 345 345 345 345 346 345 346 346 345 344 343 341
355 354 353 351 351 350 350 351 353 355 356 356 356 355 354 353 352 353 354 354 353 352 352 350 352 355 357 361 361 361 360 355 353 355 352 352 354 354 353 354 352 352 352 353 354 354 353 352 352 353 352 352 357 357 351 350 348 347 348 348 348 347 346 346 346 345 346 346 346 345 345 345 345 345 345 346 347 346 346 345 346 345 344 342 339
353 353 352 350 349 349 349 351 352 354 356 355 355 353 353 351 351 353 354 353 355 355 354 351 353 353 351 353 356 358 358 356 358 358 354 352 354 353 353 353 350 350 353 354 355 353 354 353 352 352 353 353 356 356 352 350 348 348 348 346 344 340 337 341 343 343 344 346 346 346 346 345 346 345 345 346 346 346 345 345 346 344 342 338 335
351 351 352 350 349 348 349 350 352 354 356 356 355 353 352 352 351 351 352 354 357 358 355 354 353 352 352 351 351 352 354 357 359 357 355 355 353 351 352 354 354 352 351 353 353 353 354 353 351 352 353 353 355 355 354 353 349 349 347 344 341 334 333 340 343 344 345 346 346 346 346 346 345 345 346 345 345 345 345 345 343 341 338 337 336
352 350 350 349 349 349 349 350 352 353 354 355 354 353 352 352 351 351 354 357 357 355 355 356 355 353 353 353 354 354 354 354 356 355 357 359 356 354 354 356 357 354 351 350 350 351 354 353 351 352 352 351 353 353 354 353 349 348 346 342 337 333 335 341 343 345 346 344 344 345 345 344 343 344 345 344 344 344 344 343 341 339 339 339 339
352 350 349 349 349 350 349 350 352 352 353 354 353 352 352 351 350 353 357 357 355 355 355 357 357 354 353 354 355 356 355 353 353 353 356 359 359 359 358 357 357 356 350 348 349 351 352 353 352 351 351 351 351 352 354 354 350 347 344 342 337 333 336 341 343 345 346 344 344 344 344 343 343 344 343 343 342 342 342 342 341 340 340 340 340
351 351 350 350 349 349 350 351 352 352 352 352 352 352 351 350 350 352 356 356 356 356 356 356 357 354 353 355 354 355 357 355 354 354 355 357 359 359 357 355 358 358 352 348 349 351 351 352 351 351 351 351 351 353 353 354 352 347 344 342 339 334 334 338 342 344 344 344 342 342 343 343 341 341 342 342 341 341 341 341 341 341 341 341 340
350 351 352 351 350 349 350 351 352 352 350 351 351 351 351 351 350 350 352 355 355 356 356 355 355 354 353 353 352 353 356 356 354 355 356 358 359 359 356 355 357 356 352 349 348 350 351 350 351 351 351 351 352 353 353 353 353 349 344 343 341 336 334 339 343 343 341 340 337 338 340 341 340 341 342 342 342 342 342 342 342 342 341 340 340
350 350 351 352 351 351 351 351 351 351 349 350 350 350 350 349 349 348 350 352 354 355 356 356 354 354 353 352 352 352 353 352 352 352 354 356 358 359 357 358 360 355 349 349 350 351 351 351 352 352 352 352 354 356 354 353 354 349 344 344 343 339 334 337 343 342 340 338 336 337 339 340 341 341 341 341 341 341 341 341 341 341 341 339 338
351 350 350 351 353 352 351 351 351 350 349 348 349 350 350 349 348 347 347 349 352 355 357 357 355 355 353 352 351 352 351 350 352 353 353 353 357 361 359 359 363 361 350 348 352 353 351 351 353 353 353 354 355 356 356 354 353 350 347 346 344 342 336 335 339 340 340 339 338 337 339 341 342 341 341 341 341 341 340 339 338 338 338 338 338
351 350 350 351 354 353 351 350 350 350 349 349 348 349 349 349 348 348 347 347 350 353 354 354 353 353 354 351 352 352 351 350 350 351 352 353 354 358 360 359 361 360 353 351 355 355 353 353 354 354 354 354 353 353 355 355 354 353 352 350 346 344 341 336 336 339 341 342 342 340 341 342 343 343 342 342 341 340 339 339 338 338 338 337 338
350 350 351 352 353 352 351 351 350 350 349 348 349 350 350 350 349 349 349 348 347 348 349 349 348 349 351 350 349 350 350 350 349 350 352 354 353 354 360 362 362 362 358 355 356 356 354 354 355 355 355 355 354 352 354 356 355 354 355 353 348 346 343 338 332 332 337 343 344 343 343 343 343 343 343 343 341 339 340 341 341 341 340 340 339
351 350 352 354 353 352 350 352 352 350 350 349 350 351 352 352 351 351 351 350 347 346 346 346 346 346 347 347 347 347 349 351 350 349 350 353 356 357 360 361 363 366 363 360 361 357 354 355 354 354 355 355 354 353 354 354 353 354 355 355 352 347 345 342 336 329 331 337 340 342 344 343 343 344 343 343 341 339 342 343 342 342 342 342 341
353 352 352 354 353 352 350 353 351 350 350 351 351 353 353 353 353 354 353 351 349 347 345 345 345 345 346 345 346 346 349 352 350 349 352 352 354 357 359 359 361 366 368 367 365 358 354 355 353 353 354 354 354 355 355 353 352 352 353 355 354 350 347 345 342 337 333 332 331 336 342 344 342 344 344 343 341 341 342 343 343 343 343 343 342
354 353 352 354 353 352 351 351 351 350 351 352 352 354 354 354 354 354 354 353 351 349 346 345 344 346 346 346 347 347 349 350 348 348 352 352 351 355 360 358 357 362 366 367 366 359 354 355 353 354 354 353 355 355 354 352 353 353 352 354 355 351 348 346 345 343 340 336 330 328 336 343 344 343 344 343 342 341 341 342 343 345 344 344 344
353 352 352 353 353 353 353 353 352 351 352 352 353 355 354 354 354 354 353 353 352 351 348 347 346 347 347 346 346 346 347 347 347 348 349 351 352 354 358 358 356 359 361 364 367 363 356 354 352 354 355 353 353 354 353 352 352 354 354 354 355 352 349 348 347 346 344 343 338 331 330 337 343 345 344 344 344 343 341 342 345 345 345 346 346
353 354 353 353 352 353 354 354 353 353 353 353 353 354 354 355 354 354 353 351 351 351 349 348 348 347 347 346 345 345 347 348 348 348 348 349 352 353 355 356 355 358 359 360 367 365 358 354 351 352 353 353 352 352 353 353 353 355 355 354 355 353 350 348 348 349 347 346 345 341 335 334 337 342 345 344 345 343 341 341 344 344 345 346 346
352 354 354 354 352 353 353 353 353 353 353 353 353 354 354 355 354 354 353 351 350 350 349 349 350 348 347 347 346 345 347 347 348 348 347 347 350 350 351 353 355 358 359 359 363 364 360 356 353 352 352 352 353 354 354 354 354 357 356 355 354 354 352 351 350 350 350 349 348 346 344 340 336 337 341 343 344 342 341 341 343 343 344 344 345
352 354 354 354 353 353 353 352 352 352 351 352 353 353 353 354 355 355 353 352 350 349 349 350 351 351 349 348 346 345 346 347 348 349 348 348 350 350 349 352 355 356 355 356 360 362 360 357 355 354 354 354 355 356 355 355 356 358 357 355 355 354 353 353 352 351 351 352 351 349 348 347 343 339 337 339 340 341 341 342 343 343 342 343 344
354 354 354 353 353 353 352 352 352 352 351 352 352 352 351 353 354 354 354 350 349 349 349 349 351 352 351 349 348 347 347 348 348 349 349 350 351 351 350 351 353 353 352 353 358 359 359 358 353 352 356 356 355 355 354 355 357 357 356 356 354 353 352 351 351 351 350 351 352 351 350 349 348 346 342 340 340 340 341 341 341 341 341 341 342
355 354 353 353 352 352 352 352 351 352 352 351 351 352 351 351 352 353 353 351 349 348 349 349 350 351 351 349 348 347 346 348 348 348 350 352 353 352 352 352 352 353 352 353 357 358 359 359 355 352 355 357 356 356 354 355 356 356 355 354 351 349 349 347 347 346 346 347 348 348 349 348 348 348 347 346 344 343 343 341 341 340 340 339 340
355 354 353 353 354 353 353 353 352 352 353 352 351 351 351 351 351 351 352 351 350 348 349 349 349 350 351 349 348 347 347 348 349 350 351 352 354 354 354 354 353 354 354 354 357 357 357 359 356 353 354 355 354 354 354 354 355 355 353 351 349 346 344 343 342 341 341 343 343 344 345 345 345 346 346 346 346 345 345 344 343 342 342 341 341
356 355 354 354 353 352 352 353 353 352 352 353 352 351 350 351 350 350 350 351 351 351 349 349 348 349 348 349 348 348 349 349 350 351 351 351 353 354 355 356 355 354 356 357 357 355 357 360 357 353 354 355 355 355 355 355 354 354 352 349 346 344 342 340 338 337 338 338 338 339 340 340 341 341 341 342 343 342 342 343 343 342 342 343 343
357 355 354 355 353 352 353 355 354 353 353 353 353 351 351 351 351 350 350 349 351 351 352 350 349 349 348 348 348 348 349 349 350 352 351 351 352 353 355 357 357 356 357 359 358 357 360 361 358 354 352 353 355 355 355 354 354 354 352 348 344 342 340 338 336 336 335 335 334 334 335 335 335 336 337 337 338 339 339 339 339 339 339 340 341
357 356 354 353 352 352 353 353 352 352 353 353 353 353 353 352 351 351 351 350 350 351 352 351 350 350 349 348 348 348 349 350 351 351 351 351 351 352 352 355 356 356 356 356 358 360 359 356 355 354 352 353 356 356 353 354 354 354 352 348 343 340 337 336 336 335 335 334 333 332 332 331 330 330 332 332 333 334 335 335 335 335 336 337 338
357 357 355 353 353 352 352 350 351 353 353 353 352 353 353 353 353 353 352 351 351 350 351 351 350 349 349 349 349 349 350 351 352 351 352 352 353 353 353 355 358 356 354 355 357 359 357 353 351 352 351 352 354 353 352 353 353 355 353 347 342 339 337 336 336 336 335 333 332 331 330 329 328 328 328 329 329 331 331 331 331 332 332 333 333
356 356 356 356 356 356 354 352 353 354 353 353 352 352 353 353 353 354 354 353 352 352 352 352 351 351 350 349 350 349 350 351 351 352 352 352 352 352 352 355 360 359 357 357 359 358 356 353 351 350 350 350 351 350 350 350 351 352 351 346 341 339 337 337 336 334 334 332 331 329 327 328 329 328 328 328 327 328 328 328 328 328 329 329 329
355 355 355 355 355 356 355 353 354 354 352 352 352 351 351 351 351 353 354 352 352 352 352 353 352 352 351 350 351 351 351 351 351 352 352 352 352 351 350 350 355 358 357 357 357 358 358 355 353 351 351 349 348 349 350 349 349 350 349 345 341 338 337 336 335 333 332 332 331 327 324 326 327 326 325 324 324 324 324 324 325 325 325 325 325
352 353 354 354 354 356 355 353 353 354 353 352 352 351 352 352 352 353 352 352 352 353 353 353 352 353 353 352 351 351 351 352 352 352 353 353 353 353 350 347 347 350 353 354 357 358 357 356 355 354 353 351 348 349 350 349 349 350 349 345 342 340 339 336 334 332 331 331 330 325 321 322 322 322 320 320 320 320 320 321 322 322 322 322 322
349 351 353 354 354 355 355 354 354 355 356 355 354 353 351 351 352 352 353 353 354 353 352 351 351 352 353 354 354 353 353 354 353 352 353 355 355 354 354 353 350 349 349 350 352 354 355 356 356 355 355 353 351 352 352 349 349 350 349 346 344 343 340 336 334 331 329 330 330 324 320 320 320 319 318 317 317 318 318 319 320 320 320 320 319
347 348 350 351 353 354 354 354 354 355 356 357 357 355 353 351 351 351 352 353 353 351 350 350 352 354 355 355 355 354 354 354 354 354 354 355 356 356 357 360 360 358 354 350 349 351 354 356 358 357 356 354 354 355 353 350 349 350 350 349 346 343 339 335 333 330 328 329 328 324 322 321 319 318 317 315 316 317 317 317 318 318 318 318 317
346 347 348 349 350 352 352 353 354 353 353 355 357 356 354 353 352 351 351 352 353 352 352 352 353 354 354 353 353 352 353 353 353 353 353 354 356 355 356 361 362 361 357 353 352 355 356 357 357 358 358 357 356 355 352 349 350 351 351 351 347 342 338 333 331 329 327 327 326 325 323 321 319 317 316 315 315 316 316 317 317 317 317 317 317
345 346 346 347 348 349 351 352 353 353 352 354 356 356 355 354 352 352 351 352 353 354 354 353 351 351 351 350 351 352 351 352 353 352 351 353 355 354 353 356 359 359 358 356 357 359 359 358 357 357 357 358 357 355 351 350 352 351 350 349 344 339 335 331 330 329 328 326 325 324 323 322 320 319 318 316 316 316 316 317 317 317 317 316 314
344 344 345 346 346 348 350 351 352 353 352 353 353 354 354 353 352 353 352 352 353 353 354 352 351 351 351 350 351 351 351 353 355 356 354 353 353 353 353 354 356 356 357 356 356 358 359 358 358 357 357 358 357 355 353 352 351 350 349 344 339 336 333 330 329 330 329 328 325 323 322 322 321 320 320 319 317 316 317 316 316 316 315 313 312
343 342 343 344 344 346 349 350 351 351 350 350 351 351 352 352 352 353 353 352 352 352 353 353 352 352 352 353 353 352 352 353 356 357 356 354 353 353 354 355 354 355 355 355 354 355 355 356 357 357 357 356 355 354 354 352 349 349 348 343 338 335 332 330 330 330 329 327 325 323 323 322 321 321 320 319 317 316 315 314 314 314 313 312 313
341 341 342 344 344 346 347 347 348 346 345 346 348 349 349 350 350 351 351 352 352 351 352 352 351 352 352 353 354 355 354 355 354 355 355 354 353 353 353 354 354 354 355 353 352 350 351 353 354 354 353 351 349 349 350 349 348 347 347 345 341 336 333 331 330 330 329 327 324 323 322 321 321 320 317 316 316 316 314 313 314 314 313 312 312
Wind_Speed
12 12 12 13 11 11 11 10 12 12 10 9 9 6 6 6 3 4 5 6 7 6 6 6 6 8 7 9 12 13 14 13 18 19 10 9 11 8 7 11 14 15 12 8 8 12 14 14 14 14 15 15 16 18 19 18 20 20 20 20 20 20 20 18 17 17 18 18 19 18 16 15 16 17 17 17 17 17 18 19 20 21 21 22 22
10 11 11 10 9 8 9 9 9 8 7 7 5 4 3 2 4 5 4 3 5 8 7 1 4 7 7 11 11 7 11 12 14 16 8 5 6 6 6 6 10 14 13 8 7 10 12 14 16 17 16 16 16 18 19 19 20 20 20 21 20 21 21 20 18 17 17 17 18 17 16 16 16 17 17 17 17 17 18 18 19 20 19 20 22
8 9 8 7 7 8 8 8 7 7 7 6 3 4 3 2 2 4 3 4 4 8 9 5 7 6 4 10 12 9 12 11 10 9 5 3 3 5 6 5 5 9 12 12 10 10 11 13 15 18 18 17 17 19 20 19 20 21 20 20 20 20 21 21 19 17 17 17 17 17 16 15 16 16 16 17 17 17 18 18 19 20 20 20 21
6 8 6 7 9 10 9 7 6 6 5 5 3 2 2 3 3 2 2 3 3 5 4 2 3 1 2 5 9 10 11 8 5 3 3 2 3 3 3 4 4 6 10 12 12 12 13 13 14 16 18 17 19 20 20 19 19 20 20 20 20 20 20 20 18 17 18 18 18 19 17 15 15 15 15 16 17 17 18 18 19 20 21 20 19
6 7 5 7 9 9 9 8 7 5 3 4 3 2 3 4 4 4 3 4 4 5 6 4 4 6 5 5 5 3 2 1 1 4 5 3 2 2 3 4 5 6 9 11 12 14 14 14 14 15 16 17 18 19 19 19 18 18 19 20 21 20 20 19 17 17 18 18 19 20 18 15 14 15 15 16 16 17 18 18 18 19 20 20 19
5 6 5 6 7 7 7 7 7 6 4 3 4 4 5 4 4 5 6 7 7 9 9 6 10 10 7 6 5 2 3 5 4 5 7 4 1 3 4 3 6 7 9 11 13 14 13 14 15 14 15 16 18 18 18 18 18 18 18 18 19 18 17 17 17 18 17 18 19 19 17 16 15 15 16 16 16 17 17 18 18 18 18 19 19
5 6 7 7 6 7 7 5 5 6 5 5 5 5 5 4 5 5 7 8 7 11 9 5 10 10 7 6 5 4 4 5 5 6 7 5 1 3 3 1 4 9 11 12 14 13 13 13 14 14 15 15 15 17 18 18 18 18 18 17 16 16 16 16 17 18 18 19 20 19 17 17 16 16 16 16 16 16 17 17 17 17 17 18 18
7 8 7 7 6 7 7 6 5 5 4 5 4 4 5 5 6 5 6 8 7 9 6 3 7 8 10 8 7 7 6 7 7 7 7 4 2 3 2 1 4 10 12 13 13 13 13 12 14 15 15 14 14 16 17 18 18 18 18 16 15 15 15 15 16 18 19 20 20 19 18 17 17 17 16 16 16 16 15 15 16 16 16 16 17
8 9 8 7 7 6 6 7 6 5 5 5 5 4 5 5 5 3 5 6 6 8 7 5 5 3 6 6 6 8 9 8 7 7 7 4 2 3 1 2 4 9 11 13 12 11 11 11 12 12 12 13 13 14 16 17 17 17 18 17 16 15 15 15 15 15 17 18 19 19 18 18 18 17 16 16 16 15 14 14 14 15 16 15 16
9 9 10 8 7 5 5 6 6 6 6 6 5 5 5 5 5 3 4 6 7 8 7 7 4 2 4 5 7 9 10 9 7 7 6 3 2 2 0 3 5 8 9 11 11 10 8 7 7 6 7 9 10 12 15 16 17 17 17 17 16 16 15 15 14 14 15 16 17 17 17 18 18 17 16 15 15 15 14 13 14 15 15 14 14
10 10 10 8 5 5 5 4 4 5 6 6 6 6 6 5 4 4 5 7 8 9 7 8 6 1 1 5 8 9 9 8 8 7 5 3 4 2 2 5 6 8 9 9 9 7 6 4 4 4 5 6 7 10 12 14 15 16 16 16 16 16 15 14 13 13 15 15 16 16 15 15 16 16 15 14 14 14 13 13 14 15 15 14 14
11 10 9 8 6 6 6 5 5 5 5 6 6 6 6 4 4 5 7 7 8 8 6 8 6 3 5 7 7 7 7 7 7 6 5 3 6 5 4 5 7 8 9 10 9 6 4 3 4 4 5 6 7 8 11 12 12 13 14 14 14 15 14 13 12 12 13 15 15 15 14 13 14 14 14 14 14 14 14 13 15 15 15 15 14
11 10 8 8 8 7 6 6 6 6 6 6 6 6 4 3 3 5 7 8 9 8 7 7 6 4 6 7 6 5 5 6 5 4 4 3 6 8 6 6 8 7 8 10 9 5 3 1 2 4 6 6 5 6 8 8 8 9 9 10 11 13 13 12 13 13 14 14 14 15 15 14 15 15 15 15 15 15 15 15 16 16 16 15 14
11 10 9 8 8 7 6 6 6 7 7 6 6 5 4 4 5 7 7 7 8 8 5 5 5 3 2 4 4 3 2 5 4 3 2 2 5 8 8 7 8 8 7 9 9 4 1 2 3 6 6 4 4 6 7 6 5 6 6 8 9 10 10 12 14 13 13 14 14 15 16 16 16 16 16 16 16 16 16 17 18 17 16 15 14
11 10 9 9 9 9 8 7 7 7 7 7 7 6 7 6 6 7 7 7 7 6 5 5 5 2 1 1 2 2 1 4 5 5 1 2 5 6 8 6 6 7 6 8 8 5 2 3 6 7 6 3 2 5 5 4 3 3 4 5 6 7 7 10 11 11 11 12 13 15 16 16 16 16 17 17 17 16 17 18 18 17 16 15 14
11 11 10 10 10 10 9 8 8 8 7 8 8 8 8 8 8 8 6 7 7 4 3 4 4 2 1 1 2 1 1 3 7 6 1 2 4 4 6 4 3 6 8 7 7 7 4 5 6 6 5 3 3 4 3 2 3 3 3 5 6 7 7 7 9 9 10 11 12 13 15 15 15 15 16 16 16 16 17 17 18 17 16 15 14
11 12 12 12 12 11 10 9 8 9 9 8 9 9 9 9 9 8 6 7 6 4 3 2 2 3 1 1 1 1 1 3 6 4 2 1 3 3 6 3 4 3 9 8 7 7 5 5 6 6 4 2 3 5 4 3 5 4 5 6 7 7 8 8 9 10 10 11 11 12 13 14 14 14 14 14 15 15 15 16 17 17 16 15 15
12 13 13 13 13 13 12 11 9 10 10 10 10 10 10 10 8 7 7 7 6 5 4 2 3 3 2 2 1 1 1 2 3 2 3 2 1 2 4 3 6 8 4 9 7 6 3 5 3 5 5 3 4 5 4 4 5 4 4 5 6 7 8 8 9 10 10 10 10 12 13 14 13 13 13 14 14 14 15 15 16 15 14 15 14
13 14 14 14 14 14 14 13 12 12 11 11 11 10 10 9 7 7 7 5 4 4 5 4 4 2 1 3 2 0 1 2 3 3 3 3 3 2 4 6 5 10 7 3 3 4 2 4 2 3 4 5 6 5 5 5 5 4 4 4 5 7 8 9 9 10 11 10 11 12 13 13 13 13 13 13 13 14 14 14 14 14 14 13 13
13 14 15 15 15 14 14 14 14 14 13 11 12 12 10 9 8 7 6 5 4 5 6 5 4 2 2 2 1 1 2 4 5 3 2 2 3 4 6 5 5 8 8 6 5 4 2 0 3 3 2 4 6 7 6 7 6 4 5 5 6 7 8 9 10 11 11 11 12 12 12 11 11 12 12 11 11 12 12 12 11 12 12 11 11
14 14 15 15 16 15 15 15 15 15 14 13 13 13 12 11 10 8 7 7 6 7 7 6 5 4 3 1 1 2 3 4 5 3 1 1 1 3 6 3 5 7 10 8 7 6 6 4 4 2 1 4 5 8 8 8 7 5 6 7 7 8 9 10 11 12 12 12 12 13 12 12 12 12 12 11 11 11 10 10 10 10 10 10 10
14 15 15 14 16 16 16 16 16 16 16 15 14 13 12 12 11 10 9 8 8 8 8 7 6 4 3 3 3 4 2 1 4 3 1 1 1 2 4 5 4 5 10 10 7 6 4 5 5 3 2 4 4 9 11 10 9 5 6 7 7 8 10 11 12 13 13 13 13 14 13 13 13 13 12 12 11 11 10 10 10 10 11 11 11
14 15 15 14 15 16 16 17 16 17 17 17 16 14 13 12 12 12 11 10 10 8 8 8 7 7 6 5 5 4 2 1 3 4 1 2 2 2 3 5 5 6 8 8 7 5 1 5 7 4 1 5 4 8 9 9 9 6 5 7 8 8 10 12 12 12 12 12 12 12 12 12 11 11 11 10 10 10 10 10 10 10 11 12 11
16 16 17 17 16 16 17 17 18 18 18 18 17 15 13 12 13 12 12 12 11 9 9 8 7 7 6 5 6 5 3 3 5 6 4 3 2 2 2 3 3 5 6 5 8 6 4 8 7 4 2 6 5 5 6 7 9 8 5 7 8 8 10 12 12 11 10 10 10 11 11 10 9 9 9 9 8 8 9 10 10 11 11 11 11
16 16 19 18 17 18 19 19 19 19 18 18 18 16 15 14 13 12 11 12 12 10 9 9 8 7 6 7 8 5 4 5 7 7 5 4 3 2 1 1 1 2 3 3 7 7 6 7 3 2 4 7 7 6 7 7 8 8 6 7 7 8 10 11 12 11 10 9 9 9 10 9 9 8 8 7 7 7 8 9 9 9 10 10 10
17 16 18 17 16 18 20 20 20 19 19 19 18 17 16 15 14 12 11 11 11 10 10 9 9 8 8 9 9 7 6 6 7 9 6 3 3 1 2 2 2 4 2 2 5 5 3 3 2 5 6 6 6 7 8 8 8 7 6 6 6 7 8 9 10 11 10 10 9 8 8 9 9 8 7 7 6 6 6 6 6 6 7 7 8
17 17 16 17 17 18 20 20 20 20 19 19 18 16 16 15 15 14 12 10 9 10 10 10 10 9 8 9 10 8 7 5 7 9 5 2 3 2 1 1 0 3 2 2 3 5 7 5 3 4 4 3 5 8 9 9 9 9 6 5 6 6 6 7 9 10 10 10 10 9 7 8 8 7 7 6 6 6 6 5 4 5 5 6 6
16 17 16 16 17 19 19 19 20 20 19 18 18 16 16 15 15 15 14 11 11 12 11 11 11 10 9 10 10 9 7 5 6 8 6 3 3 1 1 2 1 0 1 1 1 2 6 6 3 3 4 3 5 8 9 9 10 11 9 7 6 6 6 7 7 8 9 9 10 9 8 7 7 6 6 6 5 5 5 4 4 4 4 4 5
16 16 16 16 17 19 18 17 20 20 19 19 18 17 17 16 15 15 15 13 13 13 12 12 12 11 10 10 10 9 8 7 8 9 7 5 3 3 3 6 4 1 0 0 2 2 3 5 3 3 4 5 6 8 8 7 7 10 10 8 6 7 7 6 6 7 7 7 8 9 8 7 7 6 6 5 4 5 5 4 4 4 3 4 5
14 15 15 15 16 18 18 18 20 20 19 19 19 18 17 16 16 16 15 14 14 14 13 13 12 10 10 10 10 9 7 7 8 8 6 5 4 5 6 8 7 5 2 1 2 3 3 6 2 4 3 5 7 10 9 5 6 8 8 7 8 7 8 7 6 6 6 6 7 8 9 8 7 7 6 5 4 4 5 5 4 3 3 4 5
14 16 17 16 16 18 18 19 20 20 19 19 19 19 18 17 16 15 15 15 15 15 13 12 12 11 10 11 11 9 8 8 9 8 6 5 5 6 7 9 9 7 7 4 1 3 3 7 3 4 1 7 7 7 7 6 7 8 7 7 8 8 9 8 7 7 6 6 6 7 8 8 7 7 6 5 5 4 4 5 4 4 3 3 4
12 14 16 16 16 18 19 18 19 19 19 19 19 19 18 18 17 16 15 15 16 16 14 12 12 12 12 12 11 10 9 8 9 9 8 7 6 6 6 9 10 9 9 6 1 1 3 6 7 2 2 5 6 3 5 7 8 8 8 8 9 9 9 8 8 8 7 6 6 6 6 7 7 8 7 6 5 4 4 5 5 4 4 4 5
13 13 14 16 16 17 18 18 19 19 20 21 19 18 19 19 18 17 16 16 17 17 16 14 13 12 12 12 11 9 8 8 10 10 10 10 6 5 7 11 11 10 11 8 2 2 2 3 8 5 1 4 6 4 6 8 7 7 8 9 9 10 10 9 9 9 9 8 8 7 7 6 6 8 8 7 7 5 5 5 6 6 7 7 7
13 12 13 15 16 16 17 18 19 19 21 22 20 18 18 19 18 17 16 17 17 16 15 15 14 13 12 12 11 10 10 10 11 11 10 10 6 2 7 11 11 10 10 9 5 4 2 1 4 6 3 5 7 6 7 8 7 7 8 9 10 9 9 9 9 9 9 9 10 10 10 9 9 9 9 9 9 7 7 7 8 8 9 9 9
11 11 11 13 14 16 17 17 18 19 20 21 20 19 19 19 18 17 16 17 17 16 15 14 14 13 13 13 13 11 11 11 11 11 9 9 8 5 5 8 9 8 8 9 8 5 3 2 3 4 4 5 5 6 6 9 9 8 9 10 11 9 7 7 8 7 6 6 8 9 10 11 12 12 11 10 9 9 9 9 9 10 10 10 10
9 10 11 12 13 16 17 16 17 18 18 19 19 19 19 18 19 19 18 18 17 16 16 16 15 14 15 15 14 12 11 11 12 11 10 10 9 8 6 3 3 5 7 10 11 8 6 4 4 5 5 4 4 5 7 11 11 10 12 13 11 9 8 8 8 7 5 2 3 5 7 8 9 12 13 13 12 11 11 11 11 11 11 12 12
7 8 11 11 11 13 14 15 16 17 17 18 17 18 19 18 18 20 19 18 17 16 16 16 16 16 16 16 15 13 13 13 12 10 10 10 9 8 7 5 2 1 4 9 11 8 6 6 5 6 7 5 4 4 7 12 13 13 14 13 10 10 11 11 10 8 8 6 5 4 3 3 4 6 8 10 11 11 12 13 13 14 13 13 12
7 8 10 11 11 12 13 14 16 16 16 17 17 18 19 18 18 19 18 18 17 16 16 17 16 16 16 15 14 13 12 12 11 10 10 10 9 7 7 6 5 4 2 5 8 7 6 6 5 5 7 6 4 5 8 11 14 17 17 15 13 12 12 12 11 10 12 14 14 11 10 9 7 5 4 4 4 5 7 8 10 11 12 12 12
8 8 8 9 10 10 11 12 14 14 15 15 16 18 18 17 17 17 17 17 17 16 17 17 17 16 16 16 15 14 13 12 12 12 11 11 11 9 8 7 6 7 5 4 6 8 6 3 3 5 7 7 7 7 8 10 12 16 18 17 15 12 11 13 15 15 16 19 19 17 16 15 13 12 11 10 9 7 6 6 4 4 5 6 6
8 7 7 9 9 8 10 13 13 11 12 13 14 15 16 17 18 17 17 17 17 17 17 17 17 17 17 17 17 17 16 15 15 14 14 13 12 11 11 9 8 8 7 5 5 6 4 1 5 6 5 6 7 7 7 11 13 15 16 18 16 14 13 15 17 17 16 17 17 16 14 15 16 16 15 15 15 14 13 13 11 9 8 8 7
7 7 9 10 10 9 11 14 13 11 12 14 14 15 16 17 18 18 18 17 17 17 17 17 17 17 17 18 18 18 17 16 16 16 16 16 13 11 9 8 9 9 8 7 6 4 4 6 6 5 4 5 6 6 8 10 12 16 18 18 18 17 17 16 14 12 14 15 15 15 13 12 13 15 16 18 18 17 17 17 17 16 15 14 13
7 8 8 8 9 9 9 10 10 11 14 16 16 17 17 17 17 18 19 18 18 18 17 17 17 16 16 17 17 17 17 18 18 18 18 18 17 15 12 9 8 8 8 8 6 3 5 7 6 4 6 8 9 10 11 10 7 14 20 20 19 19 18 16 12 10 13 15 17 18 15 10 11 15 20 21 22 21 21 21 20 20 19 18 18
9 9 8 9 11 9 8 9 10 12 16 17 15 16 18 19 19 19 19 19 19 18 17 17 17 17 17 16 16 16 16 17 18 18 18 19 19 19 18 14 11 9 9 10 9 6 5 7 8 8 10 11 13 14 12 7 6 13 19 21 21 21 18 14 12 12 12 13 17 20 18 15 17 22 25 24 23 23 22 22 21 20 20 20 20
10 10 10 10 10 9 8 9 10 12 14 15 15 16 17 19 19 18 18 18 17 16 15 15 16 17 17 17 17 17 16 16 16 17 19 20 20 20 19 18 16 15 14 13 13 11 9 8 9 10 11 12 13 13 11 7 9 13 16 20 21 20 17 15 14 15 14 15 18 23 21 19 22 25 25 23 22 22 21 20 20 20 20 21 21
10 10 11 11 11 10 9 10 12 13 12 12 12 13 15 18 18 17 17 17 16 15 14 14 16 17 16 15 15 15 15 14 15 16 18 17 15 16 17 17 17 17 17 17 18 18 16 14 13 13 13 13 12 13 11 9 12 17 18 19 20 19 18 17 17 20 20 18 21 27 22 16 19 23 22 20 20 21 21 20 20 21 22 23 24
11 11 11 11 11 11 11 12 13 14 13 12 12 12 13 15 16 17 16 15 15 15 15 15 14 13 12 11 12 14 14 13 12 13 14 13 13 14 15 14 13 15 17 19 21 21 20 18 17 17 17 15 14 14 11 10 16 21 21 20 20 19 19 19 20 23 22 21 24 27 20 13 17 22 21 20 22 23 23 22 22 23 24 24 25
10 10 11 11 11 11 11 12 13 13 12 12 12 11 12 13 14 15 14 13 12 13 14 13 10 8 9 11 13 16 17 16 15 14 12 12 12 14 12 11 13 15 17 19 18 18 19 20 20 19 18 17 15 13 11 11 14 17 18 21 23 23 23 22 22 23 22 21 23 24 18 13 19 23 21 21 23 23 23 23 22 23 23 23 24
10 10 10 11 11 11 12 11 11 10 9 9 9 9 9 11 12 13 13 11 10 10 10 11 11 11 12 13 14 15 16 17 18 17 15 11 10 12 13 15 17 18 19 18 16 15 17 19 20 20 18 17 15 13 12 12 14 15 18 22 25 27 27 24 21 21 20 17 17 23 24 17 18 22 21 20 22 22 22 22 21 20 21 23 24
10 10 11 11 11 12 12 12 11 8 5 7 8 8 9 9 11 13 13 12 12 12 13 13 14 14 14 14 14 15 15 14 14 13 13 11 9 10 13 15 16 18 20 18 17 17 17 17 19 20 18 16 16 15 14 15 17 18 21 27 30 31 29 22 16 17 18 15 16 25 29 20 17 22 22 20 21 22 21 21 20 20 20 21 22
10 10 11 11 11 11 10 10 9 6 2 4 6 7 8 8 9 11 12 12 13 16 17 17 15 14 14 14 14 14 13 12 12 11 12 12 12 12 13 13 13 17 20 20 19 18 17 15 17 18 17 15 14 16 17 17 19 20 21 26 32 34 28 21 19 19 17 16 20 26 28 21 20 24 24 21 19 20 21 21 19 19 19 18 18
9 10 10 11 11 10 9 8 7 6 5 3 4 5 6 6 6 8 11 12 12 13 15 17 15 14 14 13 11 12 12 13 13 13 13 13 14 16 16 14 14 18 21 20 17 14 14 16 18 17 14 12 11 12 15 16 17 20 22 25 32 34 28 24 26 23 15 15 22 26 27 24 23 24 24 19 13 12 17 20 18 18 18 17 16
Wind_Direction
184 191 199 204 204 202 202 206 213 205 207 224 220 211 194 188 163 175 224 267 287 285 269 273 257 257 270 274 285 278 257 249 242 239 248 258 244 243 253 252 247 250 261 271 287 283 268 256 249 242 236 234 227 228 234 233 234 234 231 230 229 232 231 228 225 223 228 231 232 230 225 223 224 225 225 224 223 224 226 223 223 227 231 232 232
194 193 195 200 196 196 208 216 215 201 205 221 225 229 211 183 165 171 197 235 306 292 264 273 243 279 308 258 258 265 243 241 237 234 243 274 258 259 267 264 256 258 266 275 289 284 273 267 258 247 240 236 233 234 237 235 235 235 234 232 231 233 233 232 229 225 227 229 230 229 226 225 224 226 226 225 226 225 226 226 225 227 231 231 230
192 185 184 187 191 204 219 219 209 203 215 220 238 268 280 334 191 185 198 207 245 244 221 159 187 251 317 239 220 193 211 215 211 227 250 283 292 282 270 282 278 269 274 276 281 272 258 266 264 252 246 239 236 238 240 241 239 238 237 235 234 235 236 236 233 229 230 231 234 233 227 225 224 224 224 224 226 227 227 227 227 226 228 230 231
172 177 189 195 201 207 214 217 214 217 225 223 226 286 305 314 299 282 263 233 243 248 244 132 147 293 3 222 210 189 197 192 188 255 305 313 344 329 286 305 294 275 283 283 285 281 264 268 271 259 252 242 239 243 247 250 246 240 239 239 237 234 234 235 235 230 229 231 235 236 230 226 225 221 220 223 224 226 228 228 228 228 226 228 232
182 194 201 206 209 204 205 208 213 222 219 228 240 281 287 291 306 307 303 306 315 333 344 346 345 350 339 298 283 211 187 82 5 340 358 359 9 2 274 292 302 294 298 292 287 287 282 281 282 272 262 250 245 248 252 254 251 245 243 242 240 237 233 233 234 230 227 228 232 236 231 225 226 224 222 223 224 225 227 228 228 227 227 228 231
199 208 204 215 217 207 209 204 207 218 218 239 264 277 286 300 313 317 327 334 331 340 359 340 318 326 324 327 342 349 355 5 359 360 22 36 24 299 276 299 325 302 288 286 283 284 285 286 289 282 270 258 251 252 254 254 252 249 248 244 240 239 238 235 234 233 230 227 229 233 230 224 224 225 225 224 225 227 228 229 228 226 227 229 230
197 202 210 229 228 205 210 212 207 211 223 249 258 274 295 302 301 319 332 333 336 338 352 349 330 323 292 300 344 357 1 5 7 14 32 60 89 317 312 5 308 281 274 273 272 273 278 281 286 282 269 260 251 250 255 255 253 250 251 250 243 240 241 238 236 236 235 231 229 228 227 226 225 224 225 224 225 229 230 229 227 226 227 227 228
198 202 208 232 237 206 203 211 212 201 210 245 249 266 287 287 294 323 331 328 333 334 333 330 348 325 277 284 326 347 5 11 28 39 42 58 29 1 12 95 254 273 278 274 268 269 276 281 285 279 264 257 250 246 252 256 256 252 250 250 244 241 240 238 236 234 234 234 232 226 224 225 225 223 222 221 224 229 231 229 227 227 227 226 227
204 210 203 220 239 216 205 207 216 219 217 244 249 255 270 277 293 306 319 327 325 326 325 329 1 326 286 325 351 357 7 11 32 38 45 57 358 12 14 310 283 285 284 282 282 280 286 293 291 278 261 257 253 248 250 253 253 249 246 244 242 239 236 236 236 234 232 232 230 225 222 224 223 221 220 220 222 226 229 230 226 225 226 227 228
206 216 207 214 234 222 218 208 209 218 220 240 245 252 266 275 299 305 310 321 314 312 312 317 336 220 271 353 9 12 16 18 27 21 40 62 348 33 352 301 311 307 300 295 293 292 298 307 301 279 258 257 250 248 250 249 248 245 242 237 236 236 232 234 234 231 231 228 225 222 221 223 223 220 218 217 219 222 226 228 223 220 222 225 226
206 215 212 212 227 222 225 215 205 213 220 235 236 247 260 265 295 308 307 311 305 303 305 314 327 309 350 4 4 19 31 31 30 19 36 38 327 356 326 310 321 314 312 311 307 309 311 321 328 297 266 262 251 247 245 243 243 241 238 231 229 231 229 232 234 233 231 226 222 221 221 223 221 217 215 215 217 219 221 221 217 214 217 221 223
207 213 213 208 214 223 228 222 218 221 224 235 236 242 251 250 272 294 301 308 302 299 309 315 318 341 358 358 3 24 41 43 40 21 25 358 323 347 350 328 326 311 309 322 324 321 317 330 340 309 289 287 269 250 240 239 239 235 232 227 224 227 228 233 237 235 231 223 219 218 219 220 215 212 214 215 215 215 215 212 211 210 213 218 222
207 211 213 210 215 224 230 223 222 228 228 238 246 249 253 244 261 291 297 297 296 301 310 314 322 337 340 354 10 21 36 44 41 22 15 333 323 347 354 349 344 319 302 326 337 325 321 355 328 309 302 297 282 268 262 257 252 241 233 224 222 226 227 229 233 233 229 224 219 214 212 212 209 209 212 212 212 212 210 206 206 209 214 218 222
206 209 213 215 220 226 231 225 223 233 235 240 250 254 258 261 271 286 292 287 289 303 315 322 342 350 315 350 356 336 39 59 27 3 21 327 318 328 331 347 360 340 306 326 346 347 359 34 339 322 312 296 279 286 293 287 266 249 237 228 225 226 225 227 230 230 227 221 217 214 211 210 209 211 211 208 208 209 207 205 206 211 215 218 222
206 208 212 216 222 225 229 230 227 232 237 240 246 254 259 265 269 267 277 286 285 310 333 325 326 308 240 330 336 294 81 60 1 336 319 301 316 316 314 332 359 345 311 317 348 21 31 342 336 328 318 314 282 278 291 292 266 238 227 228 226 221 222 224 219 215 213 209 211 215 213 209 210 211 210 207 206 205 205 206 208 212 214 217 223
207 209 214 218 222 224 228 231 229 228 234 240 244 253 257 256 260 258 265 278 276 303 332 309 315 306 269 310 328 329 73 22 338 328 325 284 298 307 304 316 16 346 324 324 352 11 350 315 335 332 306 293 285 280 285 278 257 245 237 233 223 213 210 210 203 199 200 199 202 207 205 203 202 204 204 203 202 204 206 207 209 214 215 218 224
210 212 216 219 221 222 227 230 231 230 229 237 243 248 253 252 253 254 261 272 281 311 305 273 3 355 342 62 333 333 53 337 322 329 14 293 255 272 285 283 98 27 334 341 3 9 341 306 343 349 311 258 262 269 261 244 235 235 244 232 218 210 204 199 192 190 191 193 197 196 193 192 192 195 197 196 198 201 203 204 209 215 216 221 228
215 215 218 221 222 221 225 226 232 235 227 231 244 248 252 256 251 247 259 262 270 306 306 314 29 17 14 38 344 204 201 315 326 335 352 346 276 264 288 316 99 105 11 342 356 20 340 286 338 354 308 256 239 249 238 228 222 227 248 225 205 200 195 186 180 181 183 186 191 188 185 185 187 190 190 191 195 197 199 203 211 218 221 226 231
220 219 218 221 223 222 223 222 227 238 233 227 241 249 248 251 249 250 263 253 242 290 303 327 8 34 13 358 330 212 196 291 341 349 346 357 348 352 346 347 70 104 87 32 27 46 315 279 36 39 297 260 226 221 216 222 227 234 251 222 193 183 174 171 172 173 175 176 179 178 179 183 186 186 186 189 195 199 204 209 215 221 225 229 231
224 222 220 220 223 222 223 222 222 233 238 232 236 246 246 248 251 249 250 249 260 283 283 303 329 315 325 338 313 334 327 324 346 7 355 329 343 359 350 357 58 71 63 84 107 91 107 167 74 84 318 278 226 203 197 212 225 228 223 206 181 168 161 164 166 163 166 169 171 173 175 179 179 177 182 189 195 200 204 210 216 220 224 227 230
222 218 220 220 221 221 223 224 224 227 233 235 236 240 243 247 250 243 241 254 267 269 266 272 282 292 322 318 287 321 329 332 336 352 15 297 325 339 320 344 69 56 40 56 100 116 107 92 85 96 318 279 217 193 191 201 213 213 198 189 169 157 159 162 161 158 162 165 167 170 171 172 172 174 183 189 192 199 204 207 213 217 220 222 227
221 218 224 223 220 221 223 225 226 227 228 232 237 238 240 244 246 242 240 252 262 263 266 269 269 279 294 281 295 308 298 335 326 334 53 154 242 276 314 355 30 37 25 32 84 127 111 75 83 88 286 268 209 193 199 198 203 202 181 178 163 155 160 160 160 162 163 164 166 167 168 171 175 178 183 186 189 198 206 211 214 218 221 224 227
223 223 230 229 222 221 223 226 227 228 228 229 235 238 238 239 241 240 238 244 253 258 267 273 270 269 268 269 291 293 253 218 289 295 258 208 252 288 347 19 24 19 14 24 68 105 83 47 55 49 286 250 211 189 192 185 192 204 177 166 162 160 162 160 163 167 166 167 168 168 170 172 176 179 183 188 194 200 207 213 216 222 228 230 231
229 228 233 232 227 224 224 227 228 228 229 229 232 236 238 240 243 240 236 237 239 243 258 269 269 267 261 263 281 280 261 268 273 278 271 235 224 289 338 38 59 22 16 48 64 61 53 53 46 12 291 244 228 185 171 167 187 202 175 159 163 162 162 163 168 171 170 171 171 171 172 173 176 182 188 192 198 206 214 220 222 229 234 233 231
230 229 235 232 228 227 225 227 230 229 228 228 230 232 235 241 247 247 243 235 229 232 247 256 262 269 271 270 270 259 268 291 273 264 266 244 224 233 337 7 148 70 32 69 75 59 46 60 90 208 228 226 219 196 187 182 186 187 158 152 163 162 163 168 173 177 174 171 174 174 172 173 178 184 189 192 198 209 223 228 227 231 233 230 231
230 227 234 232 227 228 226 228 232 231 229 229 229 230 232 239 246 253 253 241 230 231 241 250 255 257 260 266 271 266 270 291 281 267 267 269 279 311 18 324 200 142 89 73 108 111 104 88 162 209 213 204 191 186 188 185 185 183 163 152 157 160 164 167 174 181 180 173 174 179 175 176 180 186 190 193 203 210 212 217 218 221 227 231 234
230 226 233 232 225 226 227 228 230 231 232 229 228 230 231 234 240 247 253 251 244 240 241 251 260 260 258 260 270 272 263 274 289 281 272 256 287 334 61 315 294 143 129 88 105 138 155 160 187 208 202 178 165 165 165 175 189 190 177 162 153 157 165 164 169 179 183 181 181 182 179 177 181 189 195 199 207 203 190 195 211 217 226 231 232
233 231 237 234 226 227 228 227 227 228 231 228 225 228 229 230 235 241 246 250 252 251 248 251 259 266 267 263 266 269 265 269 282 284 280 253 248 285 165 189 209 203 158 127 91 118 155 175 205 183 184 207 172 153 154 173 189 189 185 183 165 156 162 162 164 172 178 186 186 182 177 178 183 188 196 206 208 197 189 200 213 218 228 230 231
233 234 238 234 226 225 225 225 225 223 226 227 223 224 226 226 230 236 239 243 251 255 256 255 259 263 267 270 268 266 267 264 267 266 254 240 245 246 214 208 206 195 308 141 164 192 167 167 200 189 186 219 192 166 169 172 174 183 191 197 183 164 162 163 166 167 170 182 187 183 178 177 183 186 193 203 202 197 201 208 208 209 221 229 236
231 233 234 232 224 221 222 226 225 222 222 223 222 223 224 224 228 233 235 239 246 252 256 257 260 260 264 274 274 271 272 267 276 274 241 234 259 236 220 226 219 193 194 198 171 215 169 124 184 249 166 170 188 181 178 159 143 165 179 189 190 177 163 161 170 172 169 177 185 184 181 179 180 183 189 194 195 202 201 194 204 218 216 224 240
234 233 229 228 224 220 219 222 222 220 220 220 221 221 222 223 226 231 233 234 240 247 252 254 257 257 258 265 268 271 277 275 284 288 266 255 250 228 228 231 224 208 199 196 167 224 178 113 127 280 140 147 179 185 172 154 140 149 153 162 174 173 163 160 171 183 183 185 188 187 185 184 182 182 189 191 192 204 196 182 195 223 225 233 247
237 235 227 227 230 223 216 217 217 218 218 218 219 219 220 222 225 229 231 231 231 237 243 247 252 255 254 257 257 256 264 271 276 280 278 266 235 217 238 231 224 221 204 197 185 221 205 121 129 245 319 152 178 196 167 151 138 141 141 142 154 160 160 161 171 186 192 191 194 197 192 189 187 187 192 192 192 204 200 186 193 206 216 231 239
235 238 229 226 230 223 215 216 216 217 217 217 216 216 218 221 224 228 232 234 231 228 231 239 247 255 261 266 266 259 263 272 275 279 282 275 246 199 221 218 210 214 209 204 216 210 214 132 142 168 247 174 184 190 168 155 139 138 132 126 134 143 151 165 178 187 190 191 199 204 199 196 199 198 199 199 197 203 198 188 194 204 211 219 227
233 239 235 229 227 224 222 220 217 219 219 216 214 215 217 219 222 228 231 235 236 228 225 232 238 245 257 267 268 263 262 263 262 265 270 275 277 235 222 213 200 212 216 204 209 222 211 169 164 162 166 192 184 161 164 167 153 145 136 126 129 136 150 169 179 185 192 202 212 211 204 202 205 203 204 206 203 200 199 197 203 213 219 222 227
232 239 239 234 229 229 229 224 221 223 220 213 212 216 220 219 219 226 229 230 232 230 230 235 237 238 245 253 256 253 252 254 256 261 271 281 293 295 250 219 200 207 212 200 206 216 179 180 205 169 167 198 175 141 154 163 156 150 138 128 130 135 143 157 162 165 184 212 220 217 215 214 210 205 204 207 206 202 205 208 211 218 224 228 233
233 241 246 245 241 238 235 230 227 227 223 218 215 217 222 223 221 225 230 232 232 230 231 236 238 239 243 246 249 250 250 256 258 262 271 276 281 285 284 271 205 190 196 201 205 203 188 184 190 182 181 183 163 148 145 144 145 144 133 127 129 129 121 121 122 115 116 160 195 199 215 220 211 206 206 205 208 210 212 215 218 222 227 231 235
245 253 254 252 246 238 237 237 231 226 226 227 226 223 224 226 226 227 229 232 236 235 236 239 238 239 243 244 244 244 244 250 254 255 261 265 269 278 290 305 309 203 187 201 204 206 205 195 186 196 204 192 165 161 149 143 142 138 130 125 125 120 108 101 97 86 87 93 94 109 143 167 176 194 202 203 205 208 210 214 218 221 225 230 235
259 262 262 259 250 241 244 246 238 232 231 231 230 231 229 227 229 231 230 230 235 238 241 245 243 240 243 246 247 247 245 247 252 254 258 263 268 276 282 278 265 268 259 215 211 212 212 205 202 211 211 203 191 179 169 162 154 142 130 120 116 119 116 106 98 91 89 89 85 85 92 97 104 115 127 157 181 190 196 205 213 219 221 224 229
268 263 262 266 263 257 258 257 249 238 234 234 236 236 235 234 234 234 232 231 233 237 240 244 247 246 245 247 250 254 256 253 253 256 260 265 265 263 268 272 263 260 265 246 216 209 208 214 238 236 218 209 212 204 188 179 167 153 142 130 117 114 119 116 112 109 103 95 88 83 84 87 90 93 96 99 103 109 118 126 152 188 193 193 201
276 270 266 268 271 272 265 261 261 256 248 247 246 244 242 241 241 241 237 233 232 235 239 241 244 245 245 247 246 247 250 251 250 253 257 259 262 260 256 259 260 256 256 256 233 210 192 249 282 279 260 228 232 233 208 184 168 161 157 146 131 121 121 121 118 113 107 100 93 87 87 91 91 91 95 97 97 100 102 99 98 101 107 111 115
283 288 290 285 279 276 267 261 264 270 264 249 238 242 244 239 240 243 242 239 236 236 240 242 243 244 243 244 243 241 243 247 247 248 249 250 257 264 261 252 249 249 250 254 254 218 183 212 248 286 289 254 263 269 239 213 181 166 162 152 138 131 128 125 122 120 119 118 111 103 99 101 101 99 100 100 98 98 98 96 93 93 95 98 100
291 288 292 289 279 277 270 262 259 258 255 243 228 233 241 240 243 245 242 242 242 239 242 245 246 247 247 246 245 243 244 245 245 246 246 247 252 259 264 257 243 241 245 251 261 247 197 201 210 233 242 238 244 244 242 248 218 168 158 150 140 135 133 128 122 130 141 138 125 110 104 109 113 107 103 101 100 98 96 94 94 94 95 97 98
310 301 292 278 274 274 266 264 265 257 253 250 244 246 247 244 249 251 243 244 248 244 242 246 249 250 252 255 256 253 251 247 245 246 246 248 252 255 258 258 253 254 255 252 250 239 215 198 191 202 218 222 232 237 233 231 207 173 161 155 150 145 145 141 133 138 156 157 133 112 104 113 118 111 105 101 100 98 96 96 97 98 99 98 97
320 316 308 291 280 275 264 262 264 261 262 261 259 260 253 245 251 255 246 245 253 253 248 254 261 258 252 255 259 260 260 257 254 254 253 252 253 256 260 261 259 260 259 255 249 244 244 238 219 214 219 220 228 237 232 213 197 184 169 163 162 160 157 153 145 144 158 164 138 114 105 110 112 106 101 98 98 98 97 99 101 101 101 100 98
322 321 317 309 298 289 280 270 261 261 271 272 265 264 258 252 259 263 251 243 251 260 259 259 265 265 258 256 257 259 263 266 266 264 260 258 256 258 262 265 264 261 257 254 251 249 249 245 239 240 238 232 233 236 232 213 196 190 179 171 173 173 164 157 153 149 154 162 140 117 106 107 108 103 99 99 102 102 100 101 102 101 101 101 99
319 318 315 313 309 299 291 282 273 271 275 274 272 271 266 262 264 263 258 253 253 259 260 256 258 264 264 260 259 260 264 269 271 267 265 265 257 248 251 259 263 259 254 250 250 251 249 242 241 246 245 241 243 240 230 208 195 190 183 177 176 171 160 155 155 151 151 158 145 124 111 113 114 106 103 106 107 106 105 105 105 105 104 103 102
319 318 314 313 312 308 304 296 287 280 275 273 279 281 275 270 266 260 259 264 263 259 258 258 260 271 277 273 273 272 270 271 273 273 279 281 263 247 245 251 252 251 251 248 245 246 245 241 242 246 248 250 248 237 226 215 200 190 185 183 176 165 153 145 146 147 146 151 146 129 118 125 122 110 105 109 110 108 109 108 107 106 106 104 103
322 321 317 313 312 311 313 309 300 288 273 269 281 286 275 266 261 257 256 263 270 265 263 269 276 283 289 290 288 284 278 279 281 279 279 279 263 249 250 252 250 252 255 252 245 242 243 244 244 243 244 248 244 232 225 219 211 199 184 172 165 157 145 136 141 149 149 154 152 135 128 131 127 115 110 111 111 109 109 109 107 106 105 105 104
327 325 320 318 316 314 315 317 319 314 281 267 277 281 274 261 253 252 252 254 261 263 266 278 285 288 291 292 291 287 281 280 287 286 277 269 259 252 253 255 256 257 254 250 246 245 244 246 248 247 243 242 239 236 232 223 219 209 180 160 156 154 146 139 147 157 154 160 161 141 131 132 133 123 115 110 109 109 108 107 106 106 106 107 107
324 323 322 319 318 321 328 335 343 360 354 285 284 282 279 266 248 244 245 248 258 264 268 275 282 286 289 289 289 287 278 269 271 278 281 277 270 265 260 256 258 259 255 250 251 255 253 249 248 247 245 243 242 242 238 227 222 216 196 175 166 161 153 147 150 152 150 156 159 144 130 132 137 127 116 108 104 107 113 114 113 114 115 114 111
323 325 327 325 325 334 345 351 3 29 42 4 303 289 288 274 252 247 245 245 254 267 273 276 278 285 291 292 287 279 269 263 263 268 278 280 272 266 261 250 247 254 257 252 252 261 263 251 244 242 239 235 235 239 240 232 222 218 214 200 182 171 163 156 152 151 148 158 163 150 133 134 139 130 123 118 106 109 122 124 124 127 126 123 118